This is the latest recevied weather packets stored in our database for station/object N0FDH. If no packets are shown the sender has not sent any weather packets the latest 10 day(s).
| Time | Temp. | Humidity | Pressure | Rain* | Wind** | Luminosity | Snow |
|---|---|---|---|---|---|---|---|
| 1777461785 | 2.78° C | 96% | 1017 hPa | 0 mm | - | 10 W/m² | - |
| 1777461480 | 2.78° C | 96% | 1017.3 hPa | 0 mm | - | 8 W/m² | - |
| 1777461177 | 2.78° C | 96% | 1017.1 hPa | 0 mm | - | 6 W/m² | - |
| 1777460877 | 2.78° C | 96% | 1017.2 hPa | 0 mm | - | 4 W/m² | - |
| 1777460573 | 2.78° C | 96% | 1017.1 hPa | 0 mm | - | 2 W/m² | - |
| 1777460269 | 2.78° C | 96% | 1017 hPa | 0 mm | - | 1 W/m² | - |
| 1777459967 | 2.78° C | 95% | 1017 hPa | 0 mm | - | 1 W/m² | - |
| 1777459663 | 2.78° C | 95% | 1016.9 hPa | 0 mm | - | 0 W/m² | - |
| 1777459360 | 2.78° C | 95% | 1016.9 hPa | 0 mm | - | 0 W/m² | - |
| 1777459058 | 2.78° C | 94% | 1016.8 hPa | 0 mm | - | 0 W/m² | - |
| 1777458755 | 2.78° C | 94% | 1016.7 hPa | 0 mm | - | 0 W/m² | - |
| 1777458451 | 2.78° C | 93% | 1016.6 hPa | 0 mm | - | 0 W/m² | - |
| 1777458148 | 2.78° C | 92% | 1016.6 hPa | 0 mm | - | 0 W/m² | - |
| 1777457843 | 2.78° C | 93% | 1016.5 hPa | 0 mm | - | 0 W/m² | - |
| 1777457538 | 2.78° C | 92% | 1016.7 hPa | 1.27 mm | - | 0 W/m² | - |
| 1777457234 | 2.78° C | 91% | 1016.7 hPa | 1.78 mm | - | 0 W/m² | - |
| 1777456930 | 2.78° C | 91% | 1016.7 hPa | 4.83 mm | - | 0 W/m² | - |
| 1777456625 | 2.78° C | 90% | 1016.5 hPa | 4.83 mm | - | 0 W/m² | - |
| 1777456321 | 3.33° C | 88% | 1016.6 hPa | 1.78 mm | - | 0 W/m² | - |
| 1777456017 | 3.89° C | 85% | 1016.4 hPa | 0 mm | - | 0 W/m² | - |
* Rain latest hour (hover to see other rain measurements)
** Current wind speed in m/s (hover to see current wind gust speed)